x

9442396 - La Push, Wa (lapw1) Weather Station

2:36 - Wed 29th Mar 2017 All times are PDT. -7 hours from GMT.

  • Wind
    14mph, 18mph gusts
  • Sea Temp 45°f
  • Aire Temp 48°f
  • Sea Pressure 1013.4mb
  • 9442396 - La Push, Wa
  • 9442396 - La Push, Wa

More Historic Weather Station data

Upgrade to MSW Pro to gain access to the past 30 days of data for over 8000 Wavebouys and Weather Stations around the globe.

Join Pro

Comparision Forecast

View Surf forecast
   
mié 03/29 2:36 14 18 mph 1013.4mb 45f 48f
2:30 11 17 mph 1013.2mb 44f 48f
2:24 13 16 mph 1013.2mb 44f 47f
2:18 14 17 mph 1013.1mb 44f 47f
2:12 14 18 mph 1013mb 45f 47f
2:06 15 18 mph 1012.9mb 44f 47f
2:00 14 21 mph 1012.9mb 44f 47f
1:36 14 18 mph 1012.4mb 44f 47f
1:30 15 18 mph 1012.3mb 44f 48f
1:24 15 22 mph 1012.3mb 44f 47f
1:18 16 21 mph 1012.1mb 44f 48f
1:12 15 18 mph 1011.9mb 44f 48f
1:06 15 21 mph 1011.8mb 44f 48f
1:00 14 21 mph 1011.7mb 44f 48f
12:36 13 18 mph 1011.1mb 44f 48f
12:30 13 16 mph 1010.9mb 44f 48f
12:24 10 14 mph 1010.7mb 44f 48f
12:18 11 17 mph 1010.5mb 44f 47f
12:12 15 18 mph 1010.4mb 44f 47f
12:06 15 21 mph 1010.3mb 44f 47f
12:00 18 22 mph 1010.3mb 44f 48f
11:36 14 22 mph 1009.4mb 44f 47f
11:30 15 24 mph 1009.4mb 44f 47f
11:24 18 24 mph 1009.3mb 44f 47f
11:18 18 25 mph 1009.2mb 44f 47f
11:12 17 22 mph 1009.1mb 44f 47f
11:06 16 23 mph 1008.9mb 44f 47f
11:00 14 22 mph 1008.7mb 44f 48f
10:36 11 24 mph 1008mb 44f 47f
10:30 16 24 mph 1007.9mb 44f 48f
10:24 15 20 mph 1007.8mb 44f 48f
10:18 17 20 mph 1007.7mb 44f 48f
10:12 15 21 mph 1007.7mb 44f 48f
10:06 16 20 mph 1007.6mb 44f 48f
10:00 16 21 mph 1007.5mb 44f 48f
9:36 15 22 mph 1007mb 44f 49f
9:30 15 21 mph 1006.9mb 44f 49f
9:24 17 22 mph 1006.8mb 44f 49f
9:18 15 21 mph 1006.8mb 44f 49f
9:12 15 18 mph 1006.8mb 44f 49f
9:06 15 24 mph 1006.9mb 44f 49f
9:00 14 26 mph 1006.9mb 44f 49f
8:36 15 25 mph 1007mb 44f 48f
8:30 14 23 mph 1006.9mb 44f 48f
8:24 18 28 mph 1006.7mb 44f 48f
8:18 17 28 mph 1006.7mb 44f 48f
8:12 14 30 mph 1006.8mb 44f 48f
8:06 21 29 mph 1006.9mb 44f 48f
8:00 15 25 mph 1006.8mb 44f 48f
7:36 15 32 mph 1007.1mb 44f 47f
7:30 16 22 mph 1007.1mb 44f 47f
7:24 16 26 mph 1007.1mb 44f 47f
7:18 15 25 mph 1007mb 44f 47f
7:12 11 29 mph 1007mb 44f 47f
7:06 16 33 mph 1007mb 44f 47f
7:00 13 28 mph 1007mb 44f 47f
6:36 17 28 mph 1007.4mb 44f 47f
6:30 11 25 mph 1007.4mb 44f 47f
6:24 14 26 mph 1007.4mb 44f 46f
6:18 13 23 mph 1007.5mb 44f 46f
6:12 13 25 mph 1007.5mb 44f 46f
6:06 15 24 mph 1007.5mb 44f 46f
6:00 9 25 mph 1007.5mb 44f 46f
5:36 14 33 mph 1008mb 44f 46f
5:30 16 26 mph 1008.1mb 44f 46f
5:24 14 32 mph 1008.2mb 44f 46f
5:18 14 28 mph 1008.3mb 44f 46f
5:12 13 22 mph 1008.5mb 44f 46f
5:06 11 28 mph 1008.6mb 44f 46f
5:00 14 25 mph 1008.7mb 44f 46f
4:36 14 28 mph 1009.4mb 44f 46f
4:30 15 24 mph 1009.6mb 44f 46f
4:24 16 24 mph 1009.8mb 44f 46f
4:18 9 18 mph 1010mb 44f 47f
4:12 10 26 mph 1010mb 44f 47f
4:06 10 24 mph 1010.1mb 44f 47f
4:00 11 24 mph 1010.2mb 44f 46f
3:36 14 28 mph 1010.9mb 44f 46f
3:30 11 20 mph 1011mb 44f 46f
3:24 8 17 mph 1011.2mb 45f 46f
3:18 11 20 mph 1011.3mb 45f 45f
3:12 9 21 mph 1011.5mb 45f 45f
3:06 14 22 mph 1011.7mb 45f 45f
3:00 14 21 mph 1012mb 45f 45f
2:36 14 21 mph 1012.8mb 45f 46f
2:30 11 28 mph 1013mb 45f 46f
2:24 10 26 mph 1013.2mb 45f 46f
2:18 14 25 mph 1013.5mb 45f 46f
2:12 10 25 mph 1013.6mb 45f 46f
2:06 11 25 mph 1013.7mb 45f 46f
2:00 11 25 mph 1013.6mb 45f 46f
1:36 11 23 mph 1014mb 45f 46f
1:30 15 24 mph 1014.2mb 45f 46f
1:24 13 22 mph 1014.4mb 45f 46f
1:18 14 25 mph 1014.5mb 45f 46f
1:12 18 28 mph 1014.9mb 45f 46f
1:06 16 25 mph 1015.1mb 45f 46f
1:00 20 29 mph 1015.2mb 45f 46f
12:36 18 30 mph 1015.9mb 45f 47f
12:30 20 33 mph 1015.9mb 45f 47f
12:24 18 30 mph 1016.1mb 45f 47f
12:18 20 29 mph 1016.2mb 45f 48f
12:12 16 36 mph 1016.2mb 45f 48f
12:06 16 22 mph 1016.3mb 45f 48f
12:00 18 25 mph 1016.4mb 44f 48f
mar 03/28 11:36 16 31 mph 1016.7mb 44f 48f
11:30 16 24 mph 1016.8mb 44f 49f
11:24 13 25 mph 1016.9mb 44f 49f
11:18 15 22 mph 1016.9mb 44f 49f
11:12 17 26 mph 1017mb 44f 49f
11:06 18 24 mph 1017mb 44f 49f
11:00 18 25 mph 1017.1mb 44f 49f
10:36 15 22 mph 1017.3mb 44f 49f
10:30 10 22 mph 1017.4mb 44f 49f
10:24 9 18 mph 1017.5mb 44f 49f
10:18 9 16 mph 1017.5mb 44f 49f
10:12 11 18 mph 1017.6mb 44f 49f
10:06 9 15 mph 1017.7mb 44f 49f
10:00 9 20 mph 1017.8mb 44f 49f
9:36 11 18 mph 1018.2mb 44f 49f
9:30 11 22 mph 1018.3mb 44f 49f
9:24 10 16 mph 1018.4mb 44f 49f
9:18 11 20 mph 1018.4mb 44f 49f
9:12 13 17 mph 1018.5mb 44f 49f
9:06 11 21 mph 1018.5mb 44f 49f
9:00 14 22 mph 1018.5mb 44f 49f
8:36 11 18 mph 1018.6mb 44f 49f
8:30 10 16 mph 1018.7mb 44f 49f
8:24 13 17 mph 1018.7mb 44f 49f
8:18 10 21 mph 1018.7mb 44f 49f
8:12 14 17 mph 1018.6mb 44f 49f
8:06 14 21 mph 1018.7mb 44f 49f
8:00 10 17 mph 1018.7mb 44f 49f
7:36 10 18 mph 1019mb 44f 49f
7:30 13 18 mph 1018.9mb 44f 49f
7:24 13 17 mph 1019mb 44f 49f
7:18 11 17 mph 1019.1mb 44f 49f
7:12 9 20 mph 1019.1mb 44f 49f
7:06 10 15 mph 1019.2mb 44f 49f
7:00 10 15 mph 1019.2mb 44f 49f
6:36 13 21 mph 1019.4mb 44f 49f
6:30 11 18 mph 1019.3mb 44f 49f
6:24 13 18 mph 1019.3mb 44f 49f
6:18 9 16 mph 1019.4mb 44f 49f
6:12 11 18 mph 1019.3mb 44f 49f
6:06 10 16 mph 1019.5mb 44f 49f
6:00 11 17 mph 1019.4mb 44f 49f
5:36 14 17 mph 1019.6mb 44f 49f
5:30 14 20 mph 1019.6mb 44f 49f
5:24 14 18 mph 1019.5mb 44f 49f
5:18 13 18 mph 1019.5mb 44f 49f
5:12 14 20 mph 1019.4mb 44f 49f
5:06 14 21 mph 1019.5mb 44f 49f
5:00 16 22 mph 1019.4mb 44f 49f
4:36 16 22 mph 1019.7mb 44f 49f
4:30 15 21 mph 1019.6mb 44f 49f
4:24 16 22 mph 1019.6mb 44f 49f
4:18 16 20 mph 1019.6mb 44f 49f
4:12 15 21 mph 1019.6mb 44f 49f
4:06 16 22 mph 1019.5mb 45f 49f
4:00 15 20 mph 1019.6mb 44f 49f
3:54 14 20 mph 1019.6mb 44f 49f
3:48 15 20 mph 1019.7mb 44f 49f
3:36 15 20 mph 1019.7mb 44f 49f
3:30 15 18 mph 1019.8mb 44f 49f
3:24 16 21 mph 1019.8mb 44f 49f
3:18 15 21 mph 1019.7mb 44f 49f
3:12 15 20 mph 1019.8mb 45f 49f
3:06 15 20 mph 1019.8mb 44f 49f
3:00 14 20 mph 1019.8mb 45f 49f
2:54 15 22 mph 1019.8mb 45f 49f
2:48 18 22 mph 1019.9mb 44f 49f
2:36 17 22 mph 1020.1mb 44f 49f
2:30 15 18 mph 1020.2mb 44f 49f
2:24 16 21 mph 1020.2mb 44f 49f
2:18 15 20 mph 1020.2mb 44f 49f
2:12 15 20 mph 1020.2mb 44f 49f
2:06 14 20 mph 1020.2mb 45f 49f
2:00 14 18 mph 1020.3mb 45f 49f
1:54 16 20 mph 1020.3mb 45f 49f
1:48 15 20 mph 1020.3mb 45f 49f
1:36 16 22 mph 1020.2mb 44f 49f
1:30 16 21 mph 1020.2mb 44f 49f
1:24 18 25 mph 1020.2mb 45f 49f
1:18 16 23 mph 1020.1mb 45f 49f
1:12 15 21 mph 1020.2mb 45f 49f
1:06 15 21 mph 1020.3mb 45f 49f
1:00 14 23 mph 1020.2mb 44f 49f
12:54 17 25 mph 1020.1mb 44f 49f
12:48 16 24 mph 1020mb 44f 49f
12:36 17 26 mph 1020.1mb 44f 49f
12:30 16 25 mph 1020.2mb 44f 49f
12:24 17 26 mph 1020.2mb 44f 49f
12:18 18 24 mph 1020.2mb 44f 49f
12:12 17 26 mph 1020.1mb 44f 49f
12:06 16 25 mph 1020.2mb 44f 49f
12:00 16 25 mph 1020.2mb 44f 49f
11:54 16 23 mph 1020.2mb 44f 49f
11:48 15 23 mph 1020.3mb 44f 49f
11:36 14 22 mph 1020.3mb 44f 49f
11:30 15 21 mph 1020.3mb 44f 49f
11:24 14 20 mph 1020.2mb 44f 49f
11:18 17 22 mph 1020.3mb 44f 49f
11:12 18 22 mph 1020.4mb 44f 48f
11:06 14 22 mph 1020.3mb 44f 48f
11:00 17 25 mph 1020.2mb 44f 48f
10:54 16 26 mph 1020.2mb 44f 48f
10:48 18 24 mph 1020.1mb 44f 48f
10:36 17 25 mph 1019.8mb 44f 48f
10:30 21 26 mph 1020mb 44f 48f
10:24 17 28 mph 1019.9mb 44f 48f
10:18 15 22 mph 1019.8mb 44f 48f
10:12 20 25 mph 1019.9mb 44f 48f
10:06 20 26 mph 1019.9mb 44f 48f
10:00 18 24 mph 1020mb 44f 48f
9:54 17 28 mph 1020mb 44f 48f
9:48 22 28 mph 1019.9mb 45f 48f
9:36 20 25 mph 1019.7mb 44f 48f
9:30 17 25 mph 1019.6mb 44f 48f
9:24 17 25 mph 1019.6mb 44f 48f
9:18 20 26 mph 1019.6mb 44f 48f
9:12 17 25 mph 1019.5mb 44f 48f
9:06 16 25 mph 1019.4mb 44f 48f
9:00 16 32 mph 1019.5mb 44f 48f
8:54 23 32 mph 1019.4mb 44f 48f
8:48 18 29 mph 1019.5mb 44f 48f
8:36 20 28 mph 1019.4mb 44f 48f
8:30 18 25 mph 1019.4mb 44f 48f
8:24 22 29 mph 1019.4mb 44f 48f
8:18 18 28 mph 1019.3mb 44f 48f
8:12 18 24 mph 1019.4mb 44f 48f
8:06 18 24 mph 1019.4mb 44f 48f
8:00 21 26 mph 1019.4mb 44f 48f
7:54 17 24 mph 1019.4mb 44f 48f
7:48 17 24 mph 1019.4mb 45f 48f
7:36 20 28 mph 1019.5mb 45f 48f
7:30 24 30 mph 1019.5mb 45f 48f
7:24 22 28 mph 1019.4mb 45f 48f
7:18 17 28 mph 1019.3mb 45f 48f
7:12 15 24 mph 1019.4mb 44f 48f
7:06 20 26 mph 1019.5mb 44f 48f
7:00 18 30 mph 1019.4mb 44f 48f
6:54 16 28 mph 1019.3mb 44f 48f
6:48 18 26 mph 1019.3mb 44f 48f
6:36 18 28 mph 1019.3mb 44f 48f
6:30 22 25 mph 1019.4mb 44f 48f
6:24 21 29 mph 1019.4mb 44f 48f
6:18 21 25 mph 1019.4mb 44f 48f
6:12 22 28 mph 1019.4mb 44f 48f
6:06 21 26 mph 1019.5mb 44f 48f
6:00 22 30 mph 1019.5mb 44f 48f
5:54 20 28 mph 1019.4mb 44f 48f
5:48 23 30 mph 1019.4mb 44f 48f
5:36 17 29 mph 1019.4mb 44f 48f
5:30 22 30 mph 1019.3mb 44f 48f
5:24 18 24 mph 1019.3mb 44f 48f
5:18 18 29 mph 1019.5mb 44f 48f
5:12 17 26 mph 1019.5mb 44f 48f
5:06 17 29 mph 1019.6mb 44f 48f
5:00 20 29 mph 1019.6mb 44f 47f
4:54 20 29 mph 1019.6mb 44f 47f
4:48 24 29 mph 1019.6mb 44f 48f
4:36 20 29 mph 1019.5mb 44f 48f
4:30 21 29 mph 1019.6mb 44f 48f
4:24 22 28 mph 1019.7mb 44f 48f
4:18 22 29 mph 1019.8mb 44f 48f
4:12 23 29 mph 1019.8mb 44f 48f
4:06 20 26 mph 1019.9mb 44f 48f
4:00 22 29 mph 1019.9mb 44f 48f
3:54 20 24 mph 1020mb 45f 48f
3:48 20 25 mph 1020mb 45f 48f
3:36 21 26 mph 1020.2mb 45f 48f
3:30 20 26 mph 1020.2mb 44f 48f
3:24 22 26 mph 1020.2mb 45f 48f
3:18 18 24 mph 1020.2mb 45f 48f
3:12 21 28 mph 1020.2mb 45f 48f
3:06 17 24 mph 1020.3mb 45f 48f
3:00 16 25 mph 1020.3mb 45f 48f
2:54 20 28 mph 1020.4mb 45f 48f
2:48 24 28 mph 1020.4mb 45f 48f
2:36 15 21 mph 1020.4mb 45f 48f
2:30 15 23 mph 1020.5mb 45f 48f
2:24 17 30 mph 1020.5mb 46f 47f
2:18 15 25 mph 1020.6mb 46f 47f
2:12 17 26 mph 1020.6mb 46f 47f
2:06 15 26 mph 1020.6mb 46f 47f
2:00 16 29 mph 1020.6mb 46f 47f
1:54 15 26 mph 1020.5mb 46f 47f
1:48 17 28 mph 1020.7mb 46f 46f
1:36 13 24 mph 1020.8mb 47f 46f
1:30 16 25 mph 1021.1mb 47f 46f
1:24 15 28 mph 1021.1mb 47f 46f
1:18 16 28 mph 1021.3mb 47f 46f
1:12 11 25 mph 1021.3mb 47f 47f
1:06 17 24 mph 1021.3mb 47f 47f
1:00 17 25 mph 1021.4mb 47f 47f
12:54 16 23 mph 1021.5mb 46f 47f
12:48 15 29 mph 1021.7mb 46f 47f
12:36 13 22 mph 1021.9mb 46f 46f
12:30 11 26 mph 1021.7mb 46f 46f
12:24 15 25 mph 1021.8mb 46f 46f
12:18 14 24 mph 1021.9mb 46f 46f
12:12 20 26 mph 1022mb 46f 46f
12:06 20 26 mph 1022.2mb 45f 46f
12:00 15 25 mph 1022.2mb 45f 46f
lun 03/27 11:54 16 23 mph 1022.1mb 45f 46f
11:48 17 23 mph 1022.2mb 45f 46f
11:36 15 23 mph 1022.4mb 44f 46f
11:30 22 29 mph 1022.4mb 44f 46f
11:24 16 23 mph 1022.5mb 44f 46f
11:18 16 25 mph 1022.5mb 44f 46f
11:12 17 23 mph 1022.6mb 44f 46f
11:06 16 25 mph 1022.7mb 44f 46f
11:00 14 22 mph 1022.7mb 44f 46f
10:54 13 24 mph 1022.8mb 44f 46f
10:48 17 24 mph 1022.8mb 44f 46f
10:36 18 28 mph 1022.7mb 44f 46f
10:30 21 28 mph 1022.6mb 44f 46f
10:24 18 25 mph 1022.5mb 44f 46f
10:18 20 24 mph 1022.5mb 44f 47f
10:12 17 24 mph 1022.5mb 44f 47f
10:06 17 23 mph 1022.5mb 44f 46f
10:00 18 24 mph 1022.5mb 44f 46f
9:54 22 28 mph 1022.5mb 44f 46f
9:48 18 25 mph 1022.4mb 44f 47f
9:36 18 22 mph 1022.4mb 44f 46f
9:30 15 22 mph 1022.3mb 44f 46f
9:24 14 22 mph 1022.3mb 44f 46f
9:18 11 21 mph 1022.3mb 44f 47f
9:12 18 25 mph 1022.2mb 44f 47f
9:06 21 24 mph 1022.2mb 44f 47f
9:00 21 25 mph 1022.2mb 44f 47f
8:54 17 21 mph 1022.2mb 44f 47f
8:48 16 23 mph 1022.2mb 44f 47f
8:36 15 20 mph 1022.1mb 44f 47f
8:30 15 21 mph 1022mb 44f 47f
8:24 17 21 mph 1022mb 44f 47f
8:18 16 22 mph 1022mb 44f 47f
8:12 16 22 mph 1022mb 44f 46f
8:06 16 21 mph 1022mb 44f 46f
8:00 15 22 mph 1021.9mb 44f 47f
7:36 15 22 mph 1022.1mb 44f 46f
7:30 13 17 mph 1022mb 44f 46f
7:24 13 17 mph 1022mb 44f 47f
7:18 13 18 mph 1022mb 44f 47f
7:12 14 18 mph 1022mb 44f 47f
7:06 11 15 mph 1022mb 44f 46f
7:00 14 16 mph 1022mb 44f 46f
6:54 14 17 mph 1022mb 44f 46f
6:48 14 16 mph 1021.9mb 44f 46f
6:36 13 16 mph 1021.7mb 44f 46f
6:30 13 16 mph 1021.7mb 44f 46f
6:24 11 17 mph 1021.7mb 44f 46f
6:18 10 20 mph 1021.7mb 44f 46f
6:12 9 17 mph 1021.7mb 44f 46f
6:06 9 16 mph 1021.7mb 44f 45f
6:00 11 22 mph 1021.7mb 44f 46f
5:54 11 16 mph 1021.7mb 44f 46f
5:48 13 17 mph 1021.8mb 44f 46f
5:36 10 16 mph 1021.7mb 44f 46f
5:30 13 17 mph 1021.8mb 44f 46f
5:24 10 16 mph 1021.6mb 44f 46f
5:18 13 20 mph 1021.6mb 44f 47f
5:12 11 20 mph 1021.5mb 44f 47f
5:06 9 17 mph 1021.4mb 44f 47f
5:00 9 15 mph 1021.4mb 44f 46f
4:54 10 21 mph 1021.5mb 44f 47f
4:48 13 20 mph 1021.3mb 44f 47f
4:36 14 18 mph 1021.4mb 44f 48f
4:30 11 15 mph 1021.2mb 44f 48f
4:24 13 15 mph 1021mb 44f 48f
4:18 10 15 mph 1021mb 44f 48f
4:12 10 15 mph 1021.1mb 44f 48f
4:06 11 15 mph 1021.1mb 44f 47f
4:00 13 16 mph 1021.1mb 44f 47f
3:54 11 14 mph 1021.1mb 44f 48f
3:48 9 16 mph 1021mb 44f 47f
3:36 10 16 mph 1020.9mb 44f 47f
3:30 11 14 mph 1021mb 44f 47f
3:24 11 14 mph 1020.9mb 44f 47f
3:18 11 14 mph 1020.9mb 44f 47f
3:12 13 15 mph 1020.8mb 44f 47f
3:06 10 15 mph 1020.8mb 44f 47f
3:00 11 17 mph 1020.7mb 44f 47f
2:54 8 11 mph 1020.8mb 44f 46f
2:48 7 11 mph 1020.9mb 44f 46f
2:36 15 17 mph 1021mb 44f 48f
2:30 11 14 mph 1020.8mb 44f 48f
2:24 11 15 mph 1020.7mb 44f 47f
2:18 10 15 mph 1020.6mb 44f 47f
2:12 11 15 mph 1020.6mb 45f 48f
2:06 8 17 mph 1020.5mb 45f 48f
2:00 9 15 mph 1020.5mb 46f 48f
1:54 8 15 mph 1020.4mb 46f 48f
1:48 10 17 mph 1020.3mb 47f 48f
1:36 13 16 mph 1019.9mb 47f 47f
1:30 10 15 mph 1019.9mb 47f 47f
1:24 11 17 mph 1019.9mb 47f 47f
1:18 14 20 mph 1019.6mb 47f 48f
1:12 14 18 mph 1019.3mb 47f 48f
1:06 13 14 mph 1019.1mb 47f 47f
1:00 9 14 mph 1019.1mb 47f 46f
12:54 14 18 mph 1018.9mb 47f 47f
12:48 13 17 mph 1018.8mb 47f 48f
12:36 10 14 mph 1018.6mb 47f 48f
12:30 11 15 mph 1018.7mb 47f 47f
12:24 10 14 mph 1018.7mb 47f 47f
12:18 10 14 mph 1018.6mb 47f 46f
12:12 14 17 mph 1018.5mb 47f 47f
12:06 14 16 mph 1018.5mb 47f 47f
12:00 13 21 mph 1018.5mb 47f 47f
11:54 9 17 mph 1018.5mb 47f 48f
11:48 13 17 mph 1018.4mb 47f 48f
11:36 11 17 mph 1018.1mb 47f 47f
11:30 13 16 mph 1018.1mb 47f 47f
11:24 13 17 mph 1017.9mb 46f 47f
11:18 14 17 mph 1017.6mb 46f 48f
11:12 11 17 mph 1017.4mb 46f 47f
11:06 13 16 mph 1017.4mb 46f 47f
11:00 10 14 mph 1017.2mb 46f 47f
10:54 11 15 mph 1017.1mb 46f 47f
10:48 10 16 mph 1017.1mb 45f 47f
10:36 10 20 mph 1016.9mb 44f 47f
10:30 15 21 mph 1016.6mb 44f 47f
10:24 14 16 mph 1016.4mb 43f 47f
10:18 13 15 mph 1016.3mb 43f 47f
10:12 13 16 mph 1016.2mb 43f 47f
10:06 11 17 mph 1015.9mb 43f 47f
10:00 13 21 mph 1015.8mb 43f 47f
9:54 9 14 mph 1015.7mb 43f 48f
9:48 11 14 mph 1015.5mb 43f 47f
9:36 10 15 mph 1015.4mb 43f 47f
9:30 14 17 mph 1015.4mb 43f 47f
9:24 11 15 mph 1015.3mb 43f 47f
9:18 9 11 mph 1015.4mb 43f 46f
9:12 11 14 mph 1015.4mb 43f 46f
9:06 8 11 mph 1015.4mb 43f 46f
9:00 11 18 mph 1015.3mb 43f 46f
8:54 11 15 mph 1015.2mb 43f 46f
8:48 6 14 mph 1015mb 43f 46f
8:36 10 16 mph 1014.7mb 43f 47f
8:30 13 16 mph 1014.6mb 42f 47f
8:24 9 13 mph 1014.5mb 43f 47f
8:18 10 14 mph 1014.5mb 43f 47f
8:12 9 13 mph 1014.2mb 43f 46f
8:06 6 15 mph 1014.1mb 43f 46f
8:00 11 15 mph 1013.9mb 43f 46f
7:54 9 13 mph 1013.7mb 43f 46f
7:48 7 11 mph 1013.6mb 43f 45f
7:36 11 15 mph 1013.4mb 43f 47f
7:30 11 14 mph 1013.4mb 43f 47f
7:24 9 11 mph 1013.3mb 42f 47f
7:18 9 13 mph 1013.2mb 42f 47f
7:12 10 14 mph 1013.2mb 42f 46f
7:06 11 14 mph 1013.2mb 42f 46f
7:00 11 15 mph 1013.2mb 43f 46f
6:54 10 17 mph 1013.2mb 43f 46f
6:48 10 17 mph 1013mb 43f 47f
6:36 11 16 mph 1012.8mb 43f 47f
6:30 11 14 mph 1012.8mb 43f 47f
6:24 7 9 mph 1012.7mb 43f 46f
6:18 8 11 mph 1012.6mb 43f 46f
6:12 8 13 mph 1012.5mb 43f 46f
6:06 10 17 mph 1012.5mb 43f 46f
6:00 14 17 mph 1012.5mb 43f 46f
5:54 10 16 mph 1012.3mb 43f 47f
5:48 8 13 mph 1012.1mb 43f 46f
5:36 6 10 mph 1012.1mb 43f 46f
5:30 9 14 mph 1012mb 43f 46f
5:24 8 14 mph 1012mb 43f 46f
5:18 9 15 mph 1011.9mb 43f 46f
5:12 7 15 mph 1011.7mb 43f 46f
5:06 11 20 mph 1011.6mb 43f 47f
5:00 16 23 mph 1011.4mb 43f 45f
4:54 6 10 mph 1011.3mb 43f 45f
4:48 6 8 mph 1011.2mb 43f 45f
4:36 7 14 mph 1011mb 43f 46f
4:30 13 18 mph 1011.1mb 43f 45f
4:24 7 16 mph 1011mb 43f 45f
4:18 13 18 mph 1010.9mb 43f 45f
4:12 9 15 mph 1011.1mb 43f 45f
4:06 3 7 mph 1011.1mb 44f 44f
4:00 2 6 mph 1010.9mb 44f 45f
3:54 6 10 mph 1010.7mb 44f 45f
3:48 6 10 mph 1010.7mb 44f 45f
3:36 6 11 mph 1010.6mb 44f 46f
3:30 6 9 mph 1010.5mb 44f 47f
3:24 9 17 mph 1010.5mb 44f 46f
3:18 7 10 mph 1010.4mb 44f 46f
3:12 6 11 mph 1010.4mb 44f 46f
3:06 8 15 mph 1010.4mb 45f 46f
3:00 7 14 mph 1010.3mb 45f 46f
2:54 5 11 mph 1010.2mb 45f 46f
2:48 10 20 mph 1010.2mb 46f 47f
2:36 14 21 mph 1010.1mb 46f 47f
2:30 14 22 mph 1010.1mb 47f 47f
2:24 9 18 mph 1009.9mb 47f 47f
2:18 8 16 mph 1009.9mb 47f 46f
2:12 9 13 mph 1009.9mb 47f 46f
2:06 7 11 mph 1009.9mb 47f 45f
2:00 7 17 mph 1009.8mb 47f 45f
1:54 11 20 mph 1009.8mb 47f 45f
1:48 18 25 mph 1009.8mb 47f 45f
1:36 21 26 mph 1009.9mb 48f 48f
1:30 9 18 mph 1009.6mb 47f 48f
1:24 7 17 mph 1009.5mb 47f 48f
1:18 10 20 mph 1009.4mb 47f 48f
1:12 11 20 mph 1009.4mb 48f 48f
1:06 10 14 mph 1009.4mb 48f 48f
1:00 13 18 mph 1009.4mb 47f 48f
12:54 11 17 mph 1009.4mb 48f 48f
12:48 13 20 mph 1009.4mb 48f 48f
12:36 13 17 mph 1009.4mb 48f 48f
12:30 13 16 mph 1009.3mb 47f 48f
12:24 11 15 mph 1009.2mb 47f 48f
12:18 14 18 mph 1009.2mb 47f 48f
12:12 14 20 mph 1009.2mb 47f 48f
12:06 14 20 mph 1009.2mb 47f 48f
12:00 15 21 mph 1009.1mb 47f 48f
dom 03/26 11:36 13 18 mph 1008.8mb 47f 48f
11:30 9 13 mph 1008.9mb 47f 47f
11:24 3 8 mph 1008.8mb 47f 47f
11:18 5 11 mph 1008.8mb 47f 47f
11:12 8 13 mph 1008.8mb 47f 47f
11:06 8 13 mph 1008.7mb 47f 47f
11:00 7 10 mph 1008.7mb 47f 47f
10:54 8 13 mph 1008.6mb 47f 47f
10:48 9 11 mph 1008.6mb 47f 47f
10:36 6 13 mph 1008.3mb 46f 47f
10:30 6 15 mph 1008.3mb 46f 47f
10:24 8 14 mph 1008.2mb 46f 48f
10:18 14 17 mph 1008.1mb 45f 48f
10:12 13 16 mph 1008.1mb 44f 47f
10:06 11 15 mph 1008mb 44f 47f
10:00 10 16 mph 1008mb 44f 47f
9:54 10 16 mph 1007.9mb 43f 47f
9:48 9 13 mph 1007.9mb 43f 46f
9:36 10 17 mph 1007.8mb 43f 47f
9:30 10 17 mph 1007.7mb 44f 47f
9:24 7 9 mph 1007.6mb 44f 47f
9:18 7 10 mph 1007.6mb 44f 47f
9:12 8 13 mph 1007.5mb 43f 47f
9:06 7 14 mph 1007.5mb 43f 47f
9:00 8 14 mph 1007.5mb 43f 47f
8:54 10 14 mph 1007.4mb 43f 47f
8:48 7 11 mph 1007.3mb 43f 47f
8:36 5 11 mph 1007.3mb 44f 47f
8:30 8 13 mph 1007.2mb 44f 47f
8:24 9 11 mph 1007.2mb 44f 47f
8:18 6 13 mph 1007.2mb 44f 47f
8:12 9 15 mph 1007.2mb 44f 47f
8:06 6 15 mph 1007.2mb 44f 47f
8:00 7 14 mph 1007.3mb 44f 47f
7:54 8 14 mph 1007.3mb 44f 47f
7:48 9 15 mph 1007.3mb 44f 47f
7:36 13 16 mph 1007.2mb 44f 47f
7:30 11 17 mph 1007.1mb 44f 47f
7:24 10 17 mph 1007.1mb 43f 47f
7:18 13 16 mph 1006.9mb 43f 46f
7:12 13 18 mph 1006.8mb 44f 46f
7:06 8 14 mph 1006.8mb 43f 46f
7:00 14 18 mph 1006.7mb 43f 46f
6:54 9 21 mph 1006.6mb 43f 46f
6:48 11 17 mph 1006.5mb 44f 46f
6:36 11 17 mph 1006.4mb 44f 46f
6:30 6 21 mph 1006.3mb 43f 46f
6:24 11 17 mph 1006.3mb 44f 46f
6:18 13 18 mph 1006.2mb 44f 47f
6:12 14 21 mph 1006.2mb 43f 47f
6:06 13 24 mph 1006.1mb 43f 47f
6:00 15 22 mph 1006.1mb 43f 47f
5:54 14 23 mph 1006mb 44f 47f
5:48 14 24 mph 1006mb 43f 48f
5:36 16 22 mph 1005.8mb 43f 48f
5:30 15 25 mph 1005.6mb 43f 48f
5:24 14 23 mph 1005.6mb 43f 49f
5:18 17 24 mph 1005.5mb 43f 48f
5:12 11 20 mph 1005.4mb 43f 49f
5:06 15 22 mph 1005.3mb 43f 49f
5:00 13 23 mph 1005.2mb 43f 49f
4:54 11 22 mph 1005.1mb 43f 49f
4:48 14 24 mph 1005.1mb 43f 49f
4:36 11 23 mph 1005mb 43f 49f
4:30 10 25 mph 1005mb 43f 49f
4:24 15 23 mph 1004.9mb 43f 49f
4:18 11 22 mph 1004.8mb 43f 49f
4:12 13 22 mph 1004.7mb 43f 49f
4:06 14 26 mph 1004.6mb 43f 49f
4:00 14 22 mph 1004.6mb 43f 49f
3:54 13 25 mph 1004.6mb 43f 49f
3:48 14 26 mph 1004.6mb 42f 49f
3:36 13 25 mph 1004.4mb 43f 49f
3:30 14 22 mph 1004.3mb 43f 49f
3:24 13 23 mph 1004.2mb 43f 49f
3:18 13 21 mph 1004.4mb 43f 49f
3:12 11 22 mph 1004.4mb 43f 49f
3:06 14 21 mph 1004.3mb 43f 49f
3:00 14 26 mph 1004.4mb 43f 49f
2:36 13 28 mph 1004.3mb 44f 49f
2:30 21 30 mph 1004.3mb 44f 49f
2:24 20 26 mph 1004.3mb 45f 49f
2:18 8 21 mph 1004.3mb 45f 49f
2:12 17 28 mph 1004.3mb 46f 49f
2:06 16 24 mph 1004.4mb 46f 48f
2:00 15 26 mph 1004.4mb 46f 48f
1:54 14 24 mph 1004.4mb 47f 48f
1:48 10 21 mph 1004.5mb 47f 48f
1:36 13 17 mph 1004.5mb 47f 47f
1:30 13 23 mph 1004.5mb 47f 47f
1:24 10 25 mph 1004.5mb 47f 47f
1:18 9 24 mph 1004.5mb 47f 47f
1:12 11 21 mph 1004.5mb 47f 47f
1:06 13 22 mph 1004.6mb 47f 47f
1:00 13 24 mph 1004.6mb 47f 47f
12:54 15 22 mph 1004.5mb 47f 47f
12:48 7 21 mph 1004.6mb 47f 47f
12:36 11 24 mph 1004.6mb 47f 47f
12:30 11 21 mph 1004.7mb 47f 47f
12:24 9 14 mph 1004.7mb 47f 47f
12:18 10 18 mph 1004.8mb 47f 46f
12:12 8 14 mph 1004.9mb 47f 46f
12:06 10 17 mph 1004.9mb 47f 46f
12:00 11 21 mph 1005mb 47f 46f
11:54 7 13 mph 1005.1mb 47f 45f
11:48 8 18 mph 1005.1mb 47f 45f
11:36 8 14 mph 1005.1mb 47f 45f
11:30 7 15 mph 1005mb 47f 45f
11:24 7 17 mph 1005.2mb 47f 44f
11:18 9 16 mph 1005.2mb 47f 44f
11:12 7 16 mph 1005.2mb 47f 44f
11:06 8 17 mph 1005.3mb 47f 44f
11:00 9 21 mph 1005.3mb 47f 44f
10:54 9 25 mph 1005.4mb 47f 44f
10:48 9 28 mph 1005.4mb 47f 44f
10:36 7 16 mph 1005.4mb 47f 44f
10:30 8 16 mph 1005.5mb 47f 44f
10:24 10 18 mph 1005.6mb 47f 44f
10:18 8 17 mph 1005.6mb 47f 44f
10:12 14 17 mph 1005.6mb 46f 44f
10:06 9 16 mph 1005.6mb 46f 43f
10:00 11 24 mph 1005.7mb 46f 43f
9:54 8 17 mph 1005.8mb 46f 42f
9:48 8 16 mph 1005.8mb 46f 42f
9:36 7 16 mph 1006mb 44f 42f
9:30 9 15 mph 1006mb 44f 42f
9:24 7 18 mph 1006mb 43f 41f
9:18 9 15 mph 1006.2mb 44f 41f
9:12 6 15 mph 1006.2mb 44f 41f
9:06 6 18 mph 1006.4mb 43f 41f
9:00 9 14 mph 1006.5mb 44f 41f
8:54 9 17 mph 1006.6mb 43f 41f
8:48 9 14 mph 1006.7mb 43f 41f
8:36 6 14 mph 1006.9mb 43f 41f
8:30 7 10 mph 1007mb 43f 41f
8:24 8 13 mph 1007mb 43f 41f
8:18 7 13 mph 1007mb 43f 41f
8:12 7 15 mph 1007.1mb 43f 41f
8:06 6 10 mph 1007.1mb 43f 42f
8:00 8 16 mph 1007.2mb 43f 41f
7:54 7 10 mph 1007.3mb 43f 41f
7:48 6 10 mph 1007.4mb 43f 42f
7:36 7 11 mph 1007.6mb 43f 42f
7:30 7 13 mph 1007.7mb 43f 42f
7:24 8 15 mph 1007.7mb 43f 42f
7:18 8 15 mph 1007.8mb 43f 42f
7:12 6 14 mph 1007.9mb 43f 42f
7:06 7 14 mph 1008mb 43f 42f
7:00 7 11 mph 1008.2mb 43f 42f
6:54 10 16 mph 1008.3mb 43f 42f
6:48 7 14 mph 1008.3mb 43f 42f
6:36 6 14 mph 1008.4mb 43f 42f
6:30 6 11 mph 1008.5mb 43f 42f
6:24 8 13 mph 1008.5mb 43f 42f
6:18 7 15 mph 1008.6mb 43f 42f
6:12 7 13 mph 1008.6mb 43f 43f
6:06 8 13 mph 1008.7mb 43f 43f
6:00 7 16 mph 1008.8mb 43f 43f
5:54 8 15 mph 1008.9mb 43f 43f
5:48 7 11 mph 1008.9mb 43f 43f
5:36 6 11 mph 1008.9mb 43f 43f
5:30 6 13 mph 1009mb 43f 43f
5:24 7 13 mph 1009mb 43f 43f
5:18 7 10 mph 1009.1mb 43f 43f
5:12 5 9 mph 1009.1mb 44f 43f
5:06 5 9 mph 1009.3mb 44f 43f
5:00 5 10 mph 1009.4mb 43f 43f
4:36 6 13 mph 1010mb 44f 44f
4:30 8 14 mph 1010.2mb 44f 44f
4:24 8 16 mph 1010.3mb 43f 43f
4:18 5 9 mph 1010.4mb 43f 43f
4:12 6 11 mph 1010.5mb 43f 43f
4:06 8 14 mph 1010.6mb 43f 43f
4:00 6 10 mph 1010.8mb 43f 42f
3:54 7 11 mph 1011mb 43f 42f
3:48 5 8 mph 1011.2mb 43f 41f
3:36 3 7 mph 1011.5mb 43f 41f
3:30 6 8 mph 1011.7mb 44f 41f
3:24 5 9 mph 1011.8mb 43f 40f
3:18 5 8 mph 1011.8mb 43f 40f
3:12 7 9 mph 1011.9mb 43f 40f
3:06 5 7 mph 1012.1mb 44f 40f
3:00 5 8 mph 1012.2mb 44f 40f
2:54 6 8 mph 1012.4mb 44f 40f
2:48 3 7 mph 1012.5mb 44f 40f
2:36 6 9 mph 1012.7mb 44f 40f
2:30 5 9 mph 1012.8mb 44f 40f
2:24 6 9 mph 1012.8mb 44f 40f
2:18 6 9 mph 1012.8mb 44f 40f
2:12 6 9 mph 1013mb 44f 40f
2:06 5 8 mph 1013.2mb 44f 40f
2:00 6 9 mph 1013.2mb 44f 40f
1:54 6 10 mph 1013.3mb 44f 40f
1:48 6 8 mph 1013.4mb 44f 40f
1:36 6 10 mph 1013.6mb 44f 40f
1:30 6 9 mph 1013.6mb 44f 40f
1:24 6 11 mph 1013.8mb 45f 40f
1:18 7 10 mph 1013.9mb 45f 40f
1:12 6 9 mph 1014.2mb 45f 40f
1:06 7 10 mph 1014.3mb 46f 40f
1:00 6 10 mph 1014.4mb 46f 40f
12:54 6 7 mph 1014.6mb 46f 40f
12:48 5 7 mph 1014.7mb 47f 40f
12:36 6 7 mph 1014.7mb 47f 40f
12:30 5 8 mph 1014.8mb 47f 40f
12:24 6 8 mph 1014.8mb 47f 40f
12:18 6 8 mph 1014.9mb 47f 40f
12:12 6 8 mph 1014.9mb 47f 40f
12:06 6 7 mph 1015mb 47f 40f
12:00 6 9 mph 1015.1mb 47f 40f
sáb 03/25 11:54 6 8 mph 1015.2mb 47f 40f
11:48 6 9 mph 1015.2mb 47f 40f
11:36 6 7 mph 1015.5mb 47f 40f
11:30 6 7 mph 1015.4mb 47f 40f
11:24 6 8 mph 1015.5mb 46f 40f
11:18 6 8 mph 1015.6mb 46f 40f
11:12 6 7 mph 1015.7mb 46f 40f